Location: Basse Occidentale du Courleau
(48.3833°N, 4.8333°W)
Time: 19:34:45
(UTC+00:00)

SAR-Lupe-2 - Pass Details

Date: 05 July 2020
Orbit: 481 x 485 km, 98.1° (Epoch: 02 August)

Event Time Altitude Azimuth Distance (km) Brightness Sun altitude
Rises 21:38:18 0° 15° (NNE) 2,568 7.8 -9.9°
Reaches altitude 10° 21:40:23 10° 18° (NNE) 1,681 6.8 -10.1°
Maximum altitude 21:43:59 73° 103° (ESE) 513 3.5 -10.4°
Drops below altitude 10° 21:47:34 10° 189° (S) 1,665 5.9 -10.8°
Enters shadow 21:48:03 - 190° (S) 1,869 6.1 -10.8°
